Location: Port Dover
(42.7865°N, 80.2033°W)
Time: 02:11:55
(UTC-04:00)

N. Korean satellite - Visible Passes

Search period start: 22 September 2019 00:00
Search period end: 02 October 2019 00:00
Orbit: 455 x 509 km, 97.2° (Epoch: 21 September)

Date Brightness Start Highest point End Pass type
(mag) Time Alt. Az. Time Alt. Az. Time Alt. Az.
22 Sep 9.8 06:27:55 10° NE 06:30:11 16° E 06:32:26 10° SE visible
26 Sep 10.0 06:20:47 10° ENE 06:22:35 14° E 06:24:23 10° ESE visible
27 Sep 10.4 19:39:21 10° WSW 19:40:38 12° W 19:41:55 10° WNW visible
29 Sep 9.5 06:37:36 10° NE 06:40:23 22° E 06:43:10 10° SSE visible
30 Sep 10.3 06:13:54 10° ENE 06:14:58 11° E 06:16:02 10° ESE visible
01 Oct 10.1 19:31:05 10° SW 19:33:00 14° W 19:34:55 10° WNW visible
